Time,TemperatureF,DewpointF,PressureIn,WindDirection,WindDirectionDegrees,WindSpeedMPH,WindSpeedGustMPH,Humidity,HourlyPrecipIn,Conditions,Clouds,dailyrainin,SoftwareType,DateUTC
2013-06-29 00:14:00,68.5,64.8,31.74,North,0,0.0,0.0,88,0.00,,,0.00,VWS V14.00,2013-06-29 04:14:00,
2013-06-29 00:29:00,68.0,64.3,31.74,North,0,0.0,0.0,88,0.00,,,0.00,VWS V14.00,2013-06-29 04:29:00,
2013-06-29 00:44:00,67.8,64.1,31.74,North,0,0.0,0.0,88,0.00,,,0.00,VWS V14.00,2013-06-29 04:44:00,
2013-06-29 00:59:00,67.5,63.8,31.74,North,0,0.0,0.0,88,0.00,,,0.00,VWS V14.00,2013-06-29 04:59:00,
2013-06-29 01:14:00,67.1,63.8,31.74,North,0,0.0,0.0,89,0.00,,,0.00,VWS V14.00,2013-06-29 05:14:00,
2013-06-29 01:29:00,66.7,63.4,31.74,North,0,0.0,0.0,89,0.00,,,0.00,VWS V14.00,2013-06-29 05:29:00,
2013-06-29 01:44:00,66.6,63.2,31.74,North,0,0.0,0.0,89,0.00,,,0.00,VWS V14.00,2013-06-29 05:44:00,
2013-06-29 01:59:00,65.3,62.0,31.74,North,0,0.0,0.0,89,0.00,,,0.00,VWS V14.00,2013-06-29 05:59:00,
2013-06-29 02:14:00,64.4,61.1,31.74,North,0,0.0,0.0,89,0.00,,,0.00,VWS V14.00,2013-06-29 06:14:00,
2013-06-29 02:29:00,63.7,60.4,31.74,North,0,0.0,0.0,89,0.00,,,0.00,VWS V14.00,2013-06-29 06:29:00,
2013-06-29 02:44:00,63.9,60.6,31.74,North,0,0.0,0.0,89,0.00,,,0.00,VWS V14.00,2013-06-29 06:44:00,
2013-06-29 02:59:00,63.9,60.6,31.74,North,0,0.0,0.0,89,0.00,,,0.00,VWS V14.00,2013-06-29 06:59:00,
2013-06-29 03:14:00,63.9,60.6,31.74,North,0,0.0,0.0,89,0.00,,,0.00,VWS V14.00,2013-06-29 07:14:00,
2013-06-29 03:29:00,63.5,60.2,31.74,North,0,0.0,0.0,89,0.00,,,0.00,VWS V14.00,2013-06-29 07:29:00,
2013-06-29 03:44:00,63.0,59.7,31.74,North,0,0.0,0.0,89,0.00,,,0.00,VWS V14.00,2013-06-29 07:44:00,
2013-06-29 04:00:00,62.2,59.3,31.74,North,0,0.0,0.0,90,0.00,,,0.00,VWS V14.00,2013-06-29 08:00:00,
2013-06-29 04:14:00,62.1,59.1,31.74,North,0,0.0,0.0,90,0.00,,,0.00,VWS V14.00,2013-06-29 08:14:00,
2013-06-29 04:29:00,61.9,58.6,31.74,North,0,0.0,0.0,89,0.00,,,0.00,VWS V14.00,2013-06-29 08:29:00,
2013-06-29 04:44:00,61.9,58.6,31.74,North,0,0.0,0.0,89,0.00,,,0.00,VWS V14.00,2013-06-29 08:44:00,
2013-06-29 05:00:00,61.9,58.6,31.74,North,0,0.0,0.0,89,0.00,,,0.00,VWS V14.00,2013-06-29 09:00:00,
2013-06-29 05:15:00,61.9,58.6,31.74,North,0,0.0,0.0,89,0.00,,,0.00,VWS V14.00,2013-06-29 09:15:00,
2013-06-29 05:29:00,61.9,58.6,31.74,North,0,0.0,0.0,89,0.00,,,0.00,VWS V14.00,2013-06-29 09:29:00,
2013-06-29 05:45:00,61.9,58.6,31.74,North,0,0.0,0.0,89,0.00,,,0.00,VWS V14.00,2013-06-29 09:45:00,
2013-06-29 06:00:00,61.9,58.6,31.74,North,0,0.0,0.0,89,0.00,,,0.00,VWS V14.00,2013-06-29 10:00:00,
2013-06-29 06:15:00,61.9,58.6,31.74,North,0,0.0,0.0,89,0.00,,,0.00,VWS V14.00,2013-06-29 10:15:00,
2013-06-29 06:30:00,63.1,59.8,31.74,North,0,0.0,0.0,89,0.00,,,0.00,VWS V14.00,2013-06-29 10:30:00,
2013-06-29 06:45:00,63.5,60.2,31.74,North,0,0.0,0.0,89,0.00,,,0.00,VWS V14.00,2013-06-29 10:45:00,
2013-06-29 07:00:00,63.5,60.2,31.74,North,0,0.0,0.0,89,0.00,,,0.00,VWS V14.00,2013-06-29 11:00:00,
2013-06-29 07:15:00,63.9,60.6,31.74,North,0,0.0,0.0,89,0.00,,,0.00,VWS V14.00,2013-06-29 11:15:00,
2013-06-29 07:30:00,64.9,61.6,31.74,North,0,0.0,0.0,89,0.00,,,0.00,VWS V14.00,2013-06-29 11:30:00,
2013-06-29 07:45:00,66.2,62.5,31.74,North,0,0.0,0.0,88,0.00,,,0.00,VWS V14.00,2013-06-29 11:45:00,
2013-06-29 08:00:00,66.9,63.3,31.74,North,0,0.0,0.0,88,0.00,,,0.00,VWS V14.00,2013-06-29 12:00:00,
2013-06-29 08:15:00,68.4,63.7,31.74,North,0,0.0,0.0,85,0.00,,,0.00,VWS V14.00,2013-06-29 12:15:00,
2013-06-29 08:30:00,70.0,64.9,31.74,North,0,0.0,0.0,84,0.00,,,0.00,VWS V14.00,2013-06-29 12:30:00,
2013-06-29 08:45:00,70.9,60.6,31.74,North,0,0.0,0.0,70,0.00,,SCT008,0.00,VWS V14.00,2013-06-29 12:45:00,
2013-06-29 09:00:00,72.5,55.9,31.74,North,0,0.0,0.0,56,0.00,,SCT008,0.00,VWS V14.00,2013-06-29 13:00:00,
2013-06-29 09:15:00,73.8,52.9,31.74,North,0,0.0,0.0,48,0.00,,SCT008,0.00,VWS V14.00,2013-06-29 13:15:00,
2013-06-29 09:30:00,74.7,47.4,31.74,North,0,0.0,0.0,38,0.00,,SCT008,0.00,VWS V14.00,2013-06-29 13:30:00,
2013-06-29 09:45:00,75.0,44.0,31.74,North,0,0.0,0.0,33,0.00,,CLR,0.00,VWS V14.00,2013-06-29 13:45:00,
2013-06-29 10:00:00,76.1,40.7,31.74,North,0,0.0,0.0,28,0.00,,CLR,0.00,VWS V14.00,2013-06-29 14:00:00,
2013-06-29 10:15:00,75.6,42.8,31.74,North,0,0.0,0.0,31,0.00,,CLR,0.00,VWS V14.00,2013-06-29 14:15:00,
2013-06-29 10:30:00,77.4,37.8,31.74,North,0,0.0,0.0,24,0.00,,CLR,0.00,VWS V14.00,2013-06-29 14:30:00,
2013-06-29 10:44:00,77.0,37.5,31.74,North,0,0.0,0.0,24,0.00,,,0.00,VWS V14.00,2013-06-29 14:44:00,
2013-06-29 10:59:00,78.6,35.5,31.74,North,0,0.0,0.0,21,0.00,,,0.00,VWS V14.00,2013-06-29 14:59:00,
2013-06-29 11:14:00,79.0,35.8,31.74,North,0,0.0,0.0,21,0.00,,,0.00,VWS V14.00,2013-06-29 15:14:00,
2013-06-29 11:29:00,79.5,35.0,31.74,North,0,0.0,0.0,20,0.00,,,0.00,VWS V14.00,2013-06-29 15:29:00,
2013-06-29 11:44:00,81.0,36.2,31.74,North,0,0.0,0.0,20,0.00,,,0.00,VWS V14.00,2013-06-29 15:44:00,
2013-06-29 11:59:00,81.1,35.0,31.74,North,0,0.0,0.0,19,0.00,,,0.00,VWS V14.00,2013-06-29 15:59:00,
2013-06-29 12:14:00,81.7,35.5,31.74,North,0,0.0,0.0,19,0.00,,,0.00,VWS V14.00,2013-06-29 16:14:00,
2013-06-29 12:29:00,82.4,36.0,31.74,North,0,0.0,0.0,19,0.00,,,0.00,VWS V14.00,2013-06-29 16:29:00,
2013-06-29 12:44:00,83.3,32.5,31.74,North,0,0.0,0.0,16,0.00,,BKN034,0.00,VWS V14.00,2013-06-29 16:44:00,
2013-06-29 12:59:00,84.6,33.5,31.74,North,0,0.0,0.0,16,0.00,,BKN034,0.00,VWS V14.00,2013-06-29 16:59:00,
2013-06-29 13:14:00,84.2,33.2,31.74,North,0,0.0,0.0,16,0.00,,BKN034,0.00,VWS V14.00,2013-06-29 17:14:00,
2013-06-29 13:29:00,85.5,34.2,31.74,North,0,0.0,0.0,16,0.00,,BKN034,0.00,VWS V14.00,2013-06-29 17:29:00,
2013-06-29 13:44:00,85.6,29.2,31.74,North,0,0.0,0.0,13,0.00,,BKN055,0.00,VWS V14.00,2013-06-29 17:44:00,
2013-06-29 13:59:00,85.3,28.9,31.74,North,0,0.0,0.0,13,0.00,,BKN055,0.00,VWS V14.00,2013-06-29 17:59:00,
2013-06-29 14:14:00,86.5,29.9,31.74,North,0,0.0,0.0,13,0.00,,BKN055,0.00,VWS V14.00,2013-06-29 18:14:00,
2013-06-29 14:29:00,87.1,30.3,31.74,North,0,0.0,0.0,13,0.00,,BKN055,0.00,VWS V14.00,2013-06-29 18:29:00,
2013-06-29 14:44:00,88.7,31.6,31.74,North,0,0.0,0.0,13,0.00,,BKN055,0.00,VWS V14.00,2013-06-29 18:44:00,
2013-06-29 14:59:00,87.6,30.8,31.74,North,0,0.0,0.0,13,0.00,,SCT060,0.00,VWS V14.00,2013-06-29 18:59:00,
2013-06-29 15:14:00,88.9,31.7,31.74,North,0,0.0,0.0,13,0.00,,SCT060,0.00,VWS V14.00,2013-06-29 19:14:00,
2013-06-29 15:29:00,88.7,31.6,31.74,North,0,0.0,0.0,13,0.00,,SCT060,0.00,VWS V14.00,2013-06-29 19:29:00,
2013-06-29 15:44:00,89.1,31.9,31.74,North,0,0.0,0.0,13,0.00,,FEW048,0.00,VWS V14.00,2013-06-29 19:44:00,
2013-06-29 15:59:00,86.9,30.2,31.74,North,0,0.0,0.0,13,0.00,,FEW048,0.00,VWS V14.00,2013-06-29 19:59:00,
2013-06-29 16:14:00,90.0,30.6,31.74,North,0,0.0,0.0,12,0.00,,FEW048,0.00,VWS V14.00,2013-06-29 20:14:00,
2013-06-29 16:29:00,87.1,30.3,31.74,North,0,0.0,0.0,13,0.00,,FEW048,0.00,VWS V14.00,2013-06-29 20:29:00,
2013-06-29 16:45:00,87.6,30.8,31.74,North,0,0.0,0.0,13,0.00,,FEW048,0.00,VWS V14.00,2013-06-29 20:45:00,
2013-06-29 17:00:00,82.9,28.9,31.74,North,0,0.0,0.0,14,0.00,,FEW048,0.00,VWS V14.00,2013-06-29 21:00:00,
2013-06-29 17:14:00,83.1,29.0,31.74,North,0,0.0,0.0,14,0.00,,FEW060,0.00,VWS V14.00,2013-06-29 21:14:00,
2013-06-29 17:30:00,81.1,32.2,31.74,North,0,0.0,0.0,17,0.00,,FEW060,0.00,VWS V14.00,2013-06-29 21:30:00,
2013-06-29 17:45:00,82.2,35.9,31.74,North,0,0.0,0.0,19,0.00,,FEW060,0.00,VWS V14.00,2013-06-29 21:45:00,
2013-06-29 18:00:00,82.8,32.0,31.74,North,0,0.0,0.0,16,0.00,,FEW060,0.00,VWS V14.00,2013-06-29 22:00:00,
2013-06-29 18:15:00,79.7,37.5,31.74,North,0,0.0,0.0,22,0.00,,FEW075,0.00,VWS V14.00,2013-06-29 22:15:00,
2013-06-29 18:30:00,77.2,46.7,31.74,North,0,0.0,0.0,34,0.00,,FEW075,0.00,VWS V14.00,2013-06-29 22:30:00,
2013-06-29 18:45:00,75.0,56.2,31.74,North,0,0.0,0.0,52,0.00,,CLR,0.00,VWS V14.00,2013-06-29 22:45:00,
2013-06-29 19:00:00,75.0,57.8,31.74,North,0,0.0,0.0,55,0.00,,CLR,0.00,VWS V14.00,2013-06-29 23:00:00,
2013-06-29 19:15:00,74.5,55.2,31.74,North,0,0.0,0.0,51,0.00,,CLR,0.00,VWS V14.00,2013-06-29 23:15:00,
2013-06-29 19:30:00,74.3,54.5,31.74,North,0,0.0,0.0,50,0.00,,CLR,0.00,VWS V14.00,2013-06-29 23:30:00,
2013-06-29 19:45:00,74.1,56.4,31.74,North,0,0.0,0.0,54,0.00,,-RA,0.00,VWS V14.00,2013-06-29 23:45:00,
2013-06-29 20:00:00,75.6,48.2,31.74,North,0,0.0,0.0,38,0.00,,-RA,0.00,VWS V14.00,2013-06-30 00:00:00,
2013-06-29 20:15:00,74.5,45.1,31.74,North,0,0.0,0.0,35,0.00,,-RA,0.00,VWS V14.00,2013-06-30 00:15:00,
2013-06-29 20:30:00,73.4,47.6,31.74,North,0,0.0,0.0,40,0.00,,-RA,0.00,VWS V14.00,2013-06-30 00:30:00,
2013-06-29 20:45:00,72.5,57.4,31.74,North,0,0.0,0.0,59,0.00,,BKN110,0.00,VWS V14.00,2013-06-30 00:45:00,
2013-06-29 21:00:00,71.6,58.8,31.74,North,0,0.0,0.0,64,0.00,,BKN110,0.00,VWS V14.00,2013-06-30 01:00:00,
2013-06-29 21:15:00,71.1,60.0,31.74,North,0,0.0,0.0,68,0.00,,BKN110,0.00,VWS V14.00,2013-06-30 01:15:00,
2013-06-29 21:30:00,70.5,61.1,31.74,North,0,0.0,0.0,72,0.00,,BKN110,0.00,VWS V14.00,2013-06-30 01:30:00,
2013-06-29 21:44:00,70.3,61.3,31.74,North,0,0.0,0.0,73,0.00,,,0.00,VWS V14.00,2013-06-30 01:44:00,
2013-06-29 21:59:00,70.5,61.1,31.74,North,0,0.0,0.0,72,0.00,,,0.00,VWS V14.00,2013-06-30 01:59:00,
2013-06-29 22:14:00,69.8,61.5,31.74,North,0,0.0,0.0,75,0.00,,,0.00,VWS V14.00,2013-06-30 02:14:00,
2013-06-29 22:29:00,69.4,62.3,31.74,North,0,0.0,0.0,78,0.00,,,0.00,VWS V14.00,2013-06-30 02:29:00,
2013-06-29 22:44:00,69.3,62.5,31.74,North,0,0.0,0.0,79,0.00,,,0.00,VWS V14.00,2013-06-30 02:44:00,
2013-06-29 22:59:00,69.4,63.0,31.74,North,0,0.0,0.0,80,0.00,,,0.00,VWS V14.00,2013-06-30 02:59:00,
2013-06-29 23:14:00,69.3,62.8,31.74,North,0,0.0,0.0,80,0.00,,,0.00,VWS V14.00,2013-06-30 03:14:00,
2013-06-29 23:29:00,69.3,62.5,31.74,North,0,0.0,0.0,79,0.00,,,0.00,VWS V14.00,2013-06-30 03:29:00,
2013-06-29 23:44:00,69.8,63.0,31.74,North,0,0.0,0.0,79,0.00,,,0.00,VWS V14.00,2013-06-30 03:44:00,
2013-06-29 23:59:00,70.2,63.0,31.74,North,0,0.0,0.0,78,0.00,,SCT120,0.00,VWS V14.00,2013-06-30 03:59:00,